Location: Huppendorf
(49.9333°N, 11.1500°E)
Time: 09:03:11
(UTC+00:00)

STARLINK-1046 - Pass Details

Date: 27 February 2020
Orbit: 549 x 550 km, 53.0° (Epoch: 28 March)

Event Time Altitude Azimuth Distance (km) Brightness Sun altitude
Rises 18:25:17 0° 235° (SW) 2,709 8.0 -15.5°
Reaches altitude 10° 18:27:32 10° 232° (SW) 1,818 6.9 -15.9°
Maximum altitude 18:31:37 64° 152° (SSE) 611 3.6 -16.6°
Enters shadow 18:33:13 34° 82° (E) 909 4.2 -16.8°
